#timestamp,LO_Frequency,Hit,StdDev 
1571058015.1,286046998.3,N
1571058035.9,286047002.3,N
1571058055.7,286047001.3,N
1571058075.5,286047007.2,Y
1571058095.4,286047005.6,P
1571058115.2,286047002.5,N
1571058135.1,286047000.3,N
1571058136.0,286047000.3,N
1571058155.8,286047000.9,N
1571058175.6,286047002.8,N
1571058195.5,286047001.2,N
1571058215.3,286047000.8,N
1571058235.1,286046999.5,N
1571058255.9,286046998.8,N
1571058275.7,286046999.2,N
1571058295.6,286046996.6,N
1571058315.4,286046996.8,N
1571058335.2,286046996.5,N
1571058355.1,286046996.5,N
1571058356.0,286046996.5,N
1571058375.8,286046999.6,N
1571058395.6,286046992.3,Y
1571058415.5,286046991.5,P
1571058435.3,286046988.6,N
1571058455.2,286046987.6,N
1571058475.9,286046987.9,N
1571058495.7,286046985.7,Y
1571058515.6,286046997.9,P
1571058535.4,286046996.5,N
1571058555.2,286047001.1,N
1571058575.1,286047000.1,N
1571058576.0,286047000.1,N
1571058595.8,286047000.7,N
1571058615.7,286046998.1,N
1571058635.5,286046999.2,N
1571058655.3,286046998.1,N
1571058675.2,286046999.1,N
1571058695.0,286046998.1,N
1571058695.9,286046998.1,N
1571058715.7,286046998.3,N
1571058735.6,286046999.5,N
1571058755.4,286046998.1,N
1571058775.3,286047000.4,N
1571058795.1,286046999.7,N
1571058796.0,286046999.7,N
1571058815.8,286047001.5,N
1571058835.7,286047002.6,N
1571058855.5,286047002.6,N
1571058875.3,286046999.8,N
1571058895.2,286047000.2,N
1571058915.0,286047001.2,N
1571058915.9,286047001.2,N
1571058935.8,286046998.5,N
1571058955.6,286046999.7,N
1571058975.4,286046999.9,N
1571058995.3,286047000.0,N
1571059015.1,286047002.7,N
1571059035.8,286047001.1,N
1571059055.7,286047000.9,N
1571059075.5,286047001.2,N
1571059095.4,286046999.2,N
1571059115.2,286046996.8,N
1571059135.0,286046997.1,N
1571059135.9,286046997.1,N
1571059155.8,286046998.2,N
1571059175.6,286046998.5,N
1571059195.4,286046997.0,N
1571059215.3,286046997.7,N
1571059235.1,286046997.0,N
1571059255.9,286046998.1,N
1571059275.7,286046999.1,N
1571059295.5,286046999.3,N
1571059315.4,286046998.4,N
1571059335.2,286046998.4,N
1571059355.0,286046999.6,N
1571059355.9,286046999.6,N
1571059375.8,286046997.6,N
1571059395.6,286046996.5,N
1571059415.5,286046997.7,N
1571059435.3,286046996.4,N
1571059455.1,286046990.3,Y
1571059475.9,286046991.1,P
1571059495.7,286046991.4,N
1571059515.6,286046990.6,N
1571059535.4,286046991.6,N
1571059555.2,286046991.1,N
1571059575.1,286046990.8,Y
1571059576.0,286046990.8,P
1571059595.8,286046998.1,N
1571059615.7,286047002.3,N
1571059635.5,286047002.1,N
1571059655.3,286047004.4,N
1571059675.2,286047002.4,N
1571059695.0,286047002.7,N
1571059695.9,286047002.7,N
1571059715.7,286047002.8,N
1571059735.6,286047004.3,N
1571059755.4,286047003.3,N
1571059775.3,286047003.9,N
1571059795.1,286047003.4,N
1571059796.0,286047003.4,N
1571059815.8,286047004.1,N
1571059835.7,286047003.4,N
1571059855.5,286047005.3,N
1571059875.3,286047005.2,N
1571059895.2,286047003.2,N
1571059915.0,286047002.8,N
1571059915.9,286047002.8,N
1571059935.8,286047002.4,N
1571059955.6,286047000.5,N
1571059975.4,286047001.2,N
1571059995.3,286046999.2,N
1571060015.1,286046998.1,N
1571060035.8,286046999.7,N
1571060055.7,286047001.8,N
1571060075.5,286047000.1,N
1571060095.4,286047002.7,N
1571060115.2,286047004.0,N
1571060135.0,286047004.0,N
1571060135.9,286047004.0,N
1571060155.8,286047004.0,N
1571060175.6,286047003.3,N
1571060195.5,286047003.0,N
1571060215.3,286047007.6,Y
1571060235.1,286047001.3,P
1571060255.9,286047003.4,P
1571060305.7,286047003.2,E
1571060315.7,286047001.5,N
1571060335.5,286047000.4,P
1571060355.3,286047002.3,P
1571060375.2,286047001.2,N
1571060395.0,286046999.4,N
1571060395.9,286046999.4,N
1571060415.7,286046997.0,N
1571060435.6,286046996.9,N
1571060455.4,286046999.6,N
1571060475.3,286046997.4,N
1571060495.1,286046998.8,N
1571060496.0,286046998.8,N
1571060515.8,286046998.6,N
1571060535.7,286046999.5,N
1571060555.5,286046999.5,N
1571060575.3,286046995.2,Y
1571060595.2,286046995.5,P
1571060615.0,286046994.3,N
1571060615.9,286046994.3,N
1571060635.8,286046992.1,Y
1571060655.6,286046986.3,P
1571060675.4,286046996.9,N
1571060695.3,286046997.4,N
1571060715.1,286046998.8,N
1571060735.9,286046999.5,N
1571060755.7,286046997.2,N
1571060775.5,286046998.5,N
1571060795.4,286047001.0,N
1571060815.2,286046999.7,N
1571060835.0,286046999.7,N
1571060835.9,286046999.7,N
1571060855.8,286047000.1,N
1571060875.6,286047002.1,N
1571060895.5,286047001.3,N
1571060915.3,286047004.2,N
1571060935.1,286047002.5,N
1571060955.9,286047003.9,N
1571060975.7,286047005.2,N
1571060995.5,286047005.2,N
1571061015.4,286047007.3,N
1571061035.2,286047007.4,N
1571061055.0,286047004.8,N
1571061056.0,286047004.8,N
1571061075.8,286047005.7,N
1571061095.6,286047003.8,N
1571061115.5,286047002.0,N
1571061135.3,286047001.6,N
1571061155.1,286047002.1,N
1571061175.9,286047000.1,N
1571061195.7,286046998.7,N
1571061215.6,286046997.0,N
1571061235.4,286046998.3,N
1571061255.2,286047002.7,N
1571061275.1,286047000.1,N
1571061276.0,286047000.1,N
1571061295.8,286047002.7,N
1571061315.6,286047002.6,N
1571061335.5,286047002.1,N
1571061355.3,286047004.0,N
1571061375.2,286047006.0,N
1571061395.9,286047005.4,N
1571061415.7,286047005.9,N
1571061435.6,286047003.1,N
1571061455.4,286047004.2,N
1571061475.2,286047003.4,N
1571061495.1,286047003.7,N
1571061526.0,286047003.6,E
1571061535.0,286047001.8,N
1571061535.9,286047001.8,P
1571061555.8,286046999.7,P
1571061575.6,286047003.9,Y
1571061595.5,286047002.6,P
